Regional Weather Roundup
Issued by NWS

Home | Current Version | Previous Version | Graphics & Text | Print | Product List | Glossary Off
Versions: 1 2 3 4 5 6 7 8 9 10 11 12 13 14 15 16 17 18 19 20 21 22 23 24 25 26 27 28 29 30 31 32 33 34 35 36 37 38 39 40 41 42 43 44 45 46 47 48 49 50

000
ASUS43 KDTX 240501
RWRMI
MICHIGAN HOURLY REGIONAL WEATHER ROUNDUP
NATIONAL WEATHER SERVICE DETROIT/PONTIAC MI
1200 AM EST TUE JAN 24 2017

NOTE: "FAIR" INDICATES FEW OR NO CLOUDS BELOW 12,000 FEET WITH NO
SIGNIFICANT WEATHER AND/OR OBSTRUCTION TO VISIBILITY.

MIZ047>049-052>055-059>063-066>070-074>076-081>083-240600-
SOUTHEAST LOWER MICHIGAN

CITY           SKY/WX    TMP DP  RH WIND       PRES   REMARKS
ADRIAN         LGT RAIN  41  41 100 CALM      29.72R FOG
ALMA           CLOUDY    37  37  99 NW6       29.74S WCI  32
ANN ARBOR      FOG       41  41 100 CALM      29.70R VSB 1
BAD AXE        CLOUDY    35  35 100 CALM      29.72S FOG
CARO           CLOUDY    37  37 100 CALM      29.71S FOG
DETROIT CITY   CLOUDY    39  39 100 E8        29.72R FOG     WCI  33
DETROIT        FOG       41  41 100 NE5       29.72R VSB 1/4
FLINT          FOG       38  38 100 N3        29.71S VSB 1/2
GROSSE ILE     CLOUDY    40  39  95 NE6       29.71R FOG
HILLSDALE      DRIZZLE   37  36  93 NW8       29.69F WCI  31
HOWELL         FOG       37  37  97 NW6       29.70S VSB 1/2 WCI  33

CITY           SKY/WX    TMP DP  RH WIND       PRES   REMARKS
JACKSON        LGT RAIN  38  37  97 NW8       29.70F WCI  32
LAMBERTVILLE   CLOUDY    43  42  95 CALM      29.71R FOG
LANSING        CLOUDY    37  35  92 NW8       29.72F WCI  31
LAPEER         FOG       37  37 100 CALM      29.71S VSB 1/4
MASON          CLOUDY    37  37 100 NW9       29.71S FOG     WCI  31
MONROE         FOG       41  41 100 NW5       29.71R VSB 3/4
MT. CLEMENS    CLOUDY    38  38 100 E7        29.70R FOG     WCI  33
PONTIAC        FOG       38  36  92 E3        29.69R VSB 1/4
PORT HOPE        N/A     35  35 100 CALM      29.72R
PORT HURON     CLOUDY    36  36 100 CALM      29.73R
TRI CITIES     FOG       36  36 100 NW7       29.73F VSB 1   WCI  30
MIDLAND        CLOUDY    37  37  98 NW5       29.72F WCI  33
TROY           FOG       39  38  95 NE3       29.73R VSB 1
SAGINAW HB     FOG       36  34  93 NW5       29.73R VSB 1/2 WCI  32
$$
MIZ043>046-050>051-056>058-064>065-071>073-077>080-240600-
SOUTHWEST LOWER MICHIGAN

CITY           SKY/WX    TMP DP  RH WIND       PRES   REMARKS
BATTLE CREEK   LGT RAIN  40  39  97 NW5       29.73F
BENTON HARBOR  CLOUDY    39  37  92 VRB5      29.77F
BIG RAPIDS     FLURRIES  37  37  97 N3        29.74F
COLDWATER      LGT RAIN  40  40 100 NW6       29.72F
FREMONT        CLOUDY    38  38 100 N3        29.76F
HOLLAND        CLOUDY    38  36  92 NW7       29.77S WCI  33
GRAND RAPIDS   LGT RAIN  40  38  93 NW6       29.74F
IONIA          LGT RAIN  37  37 100 NW5       29.72F WCI  33
KALAMAZOO      LGT RAIN  41  38  89 NW9       29.74F
LUDINGTON      CLOUDY    37  37 100 NW5       29.77F WCI  33
MARSHALL       DRIZZLE   39  38  98 NW3       29.71F
MOUNT PLEASANT LGT RAIN  36  36  99 NW3       29.73F
MUSKEGON       CLOUDY    39  38  96 NW6       29.77F WCI  35
SOUTH HAVEN    CLOUDY    38  38  99 N5        29.77F FOG     WCI  34
$$
MIZ016>042-240600-
NORTHERN LOWER MICHIGAN

CITY           SKY/WX    TMP DP  RH WIND       PRES   REMARKS
ALPENA         LGT RAIN  36  34  92 CALM      29.76F FOG
BEAVER ISLAND  LGT SNOW  33  33 100 NE5       29.78S WCI  28
BELLAIRE       MIX PCPN  34  34 100 CALM      29.77S
CADILLAC       LGT RAIN  35  34  96 CALM      29.73F VSB 3/4
CHARLEVOIX     MIX PCPN  35  35 100 CALM      29.79F
FRANKFORT      CLOUDY    38  38 100 CALM      29.77F FOG
GAYLORD        LGT RAIN  36  32  85 CALM      29.73F FOG
GRAYLING       LGT RAIN  35  35  99 CALM      29.75F
HARBOR SPRINGS LGT RAIN  34  34 100 NE5       29.76F WCI  30
HOUGHTON LAKE  LGT RAIN  35  34  96 CALM      29.74F
MANISTEE       CLOUDY    37  36  96 W5        29.77F WCI  33
OSCODA         CLOUDY    37  36  97 CALM      29.73S FOG
PELLSTON       LGT RAIN  34  32  92 CALM      29.77F FOG
ROGERS CITY    LGT SNOW  35  34  96 CALM      29.77F VSB 1
TRAVERSE CITY  MIX PCPN  37  36  96 CALM      29.76S FOG
$$
MIZ007>008-015-240600-
EASTERN UPPER MICHIGAN

CITY           SKY/WX    TMP DP  RH WIND       PRES   REMARKS
KINROSS        MIX PCPN  33  33 100 E7        29.79S WCI  27
MACKINAC ISLAN LGT SNOW  33  33 100 E7        29.77F WCI  27
NEWBERRY       LGT SNOW  32  31  97 NE3       29.78S VSB 3/4
S. S. MARIE    LGT RAIN  35  33  92 E3        29.79S FOG
MUNISING         N/A     35  35 100 CALM      29.78F
$$
MIZ004>006-011>014-085-240600-
CENTRAL UPPER MICHIGAN

CITY           SKY/WX    TMP DP  RH WIND       PRES   REMARKS
MANISTIQUE     CLOUDY    33  32  97 CALM      29.79R
ESCANABA       FOG       35  35 100 CALM      29.80S VSB 1/2
SAWYER-GWINN   CLOUDY    32  32 100 NW3       29.78S FOG
$$
MIZ001>003-009>011-084-240600-
WESTERN UPPER MICHIGAN

CITY           SKY/WX    TMP DP  RH WIND       PRES   REMARKS
IRON MOUNTAIN  CLOUDY    34  32  92 CALM      29.77S
HOUGHTON       CLOUDY    34  32  92 NW5       29.77F FOG     WCI  30
COPPER HARBOR    N/A     34  34 100 CALM      29.79S
IRONWOOD       CLOUDY    34  33  96 W5        29.80S WCI  30
$$

ABBREVIATIONS USED IN REMARKS
   TC - TEMPERATURE IN CELSIUS
  WCI - WIND CHILL INDEX
   HX - HEAT INDEX
  VSB - VISIBILITY




USA.gov is the U.S. government's official web portal to all federal, state and local government web resources and services.